| time (UTC) | temp C | wind direction | speed KPH | gust KPH | rain 1hr cm | rain 24hr cm | rain mn cm | humidity % | barometer mb |
| 20260510220543 | 18 | 322 | 1.6 | 4.8 | 0.00 | 0.08 | 0.08 | 95 | 1014.2 |
| 20260510220039 | 18 | 323 | 3.2 | 4.8 | 0.13 | 0.08 | 0.08 | 95 | 1014.2 |
| 20260510215536 | 18 | 330 | 1.6 | 6.4 | 0.13 | 0.08 | 0.08 | 93 | 1014.1 |
| 20260510215034 | 19 | 324 | 1.6 | 3.2 | 0.18 | 0.05 | 0.05 | 92 | 1014.5 |
| 20260510214531 | 20 | 299 | 0.0 | 4.8 | 0.30 | 0.05 | 0.05 | 91 | 1014.8 |
| 20260510214027 | 21 | 277 | 1.6 | 4.8 | 0.13 | 0.03 | 0.03 | 86 | 1014.8 |
| 20260510213525 | 21 | 302 | 0.0 | 1.6 | 0.00 | 0.00 | 0.00 | 79 | 1014.4 |
| 20260510213021 | 22 | 303 | 0.0 | 3.2 | 0.00 | 0.00 | 0.00 | 76 | 1014.2 |
| 20260510212517 | 22 | 328 | 3.2 | 4.8 | 0.00 | 0.00 | 0.00 | 74 | 1014.0 |
| 20260510212014 | 22 | 329 | 3.2 | 3.2 | 0.00 | 0.00 | 0.00 | 71 | 1013.7 |
| 20260510211512 | 23 | 323 | 1.6 | 4.8 | 0.00 | 0.00 | 0.00 | 68 | 1013.7 |
| 20260510211012 | 24 | 14 | 4.8 | 4.8 | 0.00 | 0.00 | 0.00 | 63 | 1013.5 |
| 20260510210508 | 24 | 1 | 0.0 | 1.6 | 0.00 | 0.00 | 0.00 | 59 | 1013.4 |
| 20260510210008 | 25 | 287 | 1.6 | 4.8 | 0.00 | 0.00 | 0.00 | 59 | 1013.3 |
| 20260510205503 | 25 | 309 | 0.0 | 1.6 | 0.00 | 0.00 | 0.00 | 61 | 1013.4 |
| 20260510204958 | 25 | 312 | 0.0 | 0.0 | 0.00 | 0.00 | 0.00 | 60 | 1013.3 |
| 20260510204455 | 25 | 169 | 1.6 | 3.2 | 0.00 | 0.00 | 0.00 | 60 | 1013.3 |
| 20260510203951 | 25 | 275 | 1.6 | 3.2 | 0.00 | 0.00 | 0.00 | 61 | 1013.1 |
| 20260510203449 | 25 | 161 | 0.0 | 1.6 | 0.00 | 0.00 | 0.00 | 61 | 1013.2 |
| 20260510202949 | 24 | 180 | 0.0 | 1.6 | 0.00 | 0.00 | 0.00 | 64 | 1013.3 |
| 20260510202444 | 24 | 44 | 1.6 | 3.2 | 0.00 | 0.00 | 0.00 | 62 | 1013.3 |
| 20260510201941 | 24 | 198 | 0.0 | 0.0 | 0.00 | 0.00 | 0.00 | 64 | 1013.1 |
| 20260510201439 | 24 | 227 | 0.0 | 1.6 | 0.00 | 0.00 | 0.00 | 66 | 1013.2 |
| 20260510200935 | 24 | 194 | 0.0 | 1.6 | 0.00 | 0.00 | 0.00 | 64 | 1013.2 |
| 20260510200430 | 23 | 217 | 0.0 | 3.2 | 0.00 | 0.00 | 0.00 | 64 | 1013.5 |
| 20260510195923 | 23 | 211 | 0.0 | 0.0 | 0.00 | 0.00 | 0.00 | 66 | 1013.4 |
| 20260510195421 | 23 | 90 | 1.6 | 1.6 | 0.00 | 0.00 | 0.00 | 63 | 1013.5 |
| 20260510194916 | 23 | 181 | 3.2 | 6.4 | 0.00 | 0.00 | 0.00 | 65 | 1013.6 |
| 20260510194412 | 24 | 192 | 6.4 | 9.7 | 0.00 | 0.00 | 0.00 | 62 | 1013.8 |
| 20260510193908 | 25 | 195 | 6.4 | 12.9 | 0.00 | 0.00 | 0.00 | 62 | 1013.8 |
| 20260510193403 | 25 | 335 | 0.0 | 1.6 | 0.00 | 0.00 | 0.00 | 60 | 1013.8 |
| 20260510192859 | 25 | 343 | 0.0 | 0.0 | 0.00 | 0.00 | 0.00 | 62 | 1013.7 |
| 20260510192354 | 24 | 343 | 0.0 | 1.6 | 0.00 | 0.00 | 0.00 | 60 | 1013.6 |
| 20260510191850 | 25 | 202 | 0.0 | 1.6 | 0.00 | 0.00 | 0.00 | 62 | 1013.8 |
| 20260510191347 | 25 | 178 | 0.0 | 1.6 | 0.00 | 0.00 | 0.00 | 61 | 1013.8 |
| 20260510190844 | 25 | 11 | 1.6 | 4.8 | 0.00 | 0.00 | 0.00 | 61 | 1013.8 |
| 20260510190342 | 25 | 152 | 1.6 | 3.2 | 0.00 | 0.00 | 0.00 | 59 | 1013.7 |
| 20260510185838 | 25 | 204 | 3.2 | 11.3 | 0.00 | 0.00 | 0.00 | 58 | 1013.8 |
| 20260510185336 | 25 | 238 | 4.8 | 4.8 | 0.00 | 0.00 | 0.00 | 59 | 1013.8 |
| 20260510184833 | 25 | 296 | 1.6 | 3.2 | 0.00 | 0.00 | 0.00 | 59 | 1013.8 |
| 20260510184330 | 25 | 286 | 0.0 | 3.2 | 0.00 | 0.00 | 0.00 | 58 | 1013.7 |
| 20260510183824 | 25 | 298 | 3.2 | 3.2 | 0.00 | 0.00 | 0.00 | 58 | 1013.7 |
| 20260510183320 | 25 | 324 | 0.0 | 1.6 | 0.00 | 0.00 | 0.00 | 57 | 1013.7 |
| 20260510182816 | 25 | 326 | 0.0 | 4.8 | 0.00 | 0.00 | 0.00 | 57 | 1013.7 |
| 20260510182313 | 26 | 312 | 0.0 | 1.6 | 0.00 | 0.00 | 0.00 | 55 | 1013.7 |
| 20260510181809 | 26 | 270 | 3.2 | 3.2 | 0.00 | 0.00 | 0.00 | 55 | 1013.7 |
| 20260510181306 | 27 | 345 | 0.0 | 6.4 | 0.00 | 0.00 | 0.00 | 52 | 1013.8 |
| 20260510180802 | 28 | 317 | 0.0 | 3.2 | 0.00 | 0.00 | 0.00 | 53 | 1013.8 |
| 20260510180259 | 26 | 58 | 1.6 | 6.4 | 0.00 | 0.00 | 0.00 | 53 | 1013.5 |
| 20260510175756 | 26 | 307 | 3.2 | 4.8 | 0.00 | 0.00 | 0.00 | 55 | 1013.7 |
| 20260510175251 | 26 | 38 | 1.6 | 4.8 | 0.00 | 0.00 | 0.00 | 54 | 1013.7 |
| 20260510174749 | 26 | 292 | 3.2 | 6.4 | 0.00 | 0.00 | 0.00 | 55 | 1013.9 |
| 20260510174246 | 26 | 231 | 3.2 | 9.7 | 0.00 | 0.00 | 0.00 | 53 | 1013.9 |
| 20260510173737 | 26 | 13 | 1.6 | 4.8 | 0.00 | 0.00 | 0.00 | 54 | 1013.8 |
| 20260510173232 | 25 | 304 | 1.6 | 1.6 | 0.00 | 0.00 | 0.00 | 54 | 1013.8 |
| 20260510172728 | 26 | 341 | 1.6 | 4.8 | 0.00 | 0.00 | 0.00 | 56 | 1013.8 |
| 20260510172225 | 25 | 348 | 1.6 | 3.2 | 0.00 | 0.00 | 0.00 | 57 | 1013.7 |
| 20260510171722 | 26 | 0 | 3.2 | 4.8 | 0.00 | 0.00 | 0.00 | 56 | 1013.8 |
| 20260510171219 | 25 | 306 | 0.0 | 4.8 | 0.00 | 0.00 | 0.00 | 57 | 1013.9 |
| 20260510170716 | 25 | 150 | 1.6 | 4.8 | 0.00 | 0.00 | 0.00 | 56 | 1014.0 |
| 20260510170212 | 25 | 122 | 3.2 | 4.8 | 0.00 | 0.00 | 0.00 | 55 | 1014.0 |
| 20260510165708 | 26 | 166 | 1.6 | 3.2 | 0.00 | 0.00 | 0.00 | 59 | 1014.0 |
| 20260510165203 | 25 | 158 | 0.0 | 1.6 | 0.00 | 0.00 | 0.00 | 59 | 1013.9 |
| 20260510164702 | 25 | 256 | 3.2 | 9.7 | 0.00 | 0.00 | 0.00 | 58 | 1014.0 |
| 20260510164159 | 26 | 307 | 1.6 | 6.4 | 0.00 | 0.00 | 0.00 | 56 | 1014.0 |
| 20260510163659 | 25 | 275 | 1.6 | 6.4 | 0.00 | 0.00 | 0.00 | 58 | 1014.1 |
| 20260510163155 | 24 | 93 | 0.0 | 3.2 | 0.00 | 0.00 | 0.00 | 61 | 1014.1 |
| 20260510162654 | 25 | 263 | 1.6 | 4.8 | 0.00 | 0.00 | 0.00 | 59 | 1014.1 |
| 20260510162151 | 24 | 202 | 3.2 | 4.8 | 0.00 | 0.00 | 0.00 | 60 | 1013.9 |
| 20260510161647 | 24 | 95 | 1.6 | 3.2 | 0.00 | 0.00 | 0.00 | 60 | 1013.9 |
| 20260510161144 | 24 | 220 | 4.8 | 6.4 | 0.00 | 0.00 | 0.00 | 60 | 1014.0 |
| 20260510160641 | 24 | 182 | 0.0 | 0.0 | 0.00 | 0.00 | 0.00 | 61 | 1014.2 |
| 20260510160136 | 23 | 359 | 0.0 | 1.6 | 0.00 | 0.00 | 0.00 | 64 | 1014.1 |
| 20260510155632 | 23 | 77 | 0.0 | 4.8 | 0.00 | 0.00 | 0.00 | 63 | 1014.2 |
| 20260510155128 | 23 | 196 | 4.8 | 9.7 | 0.00 | 0.00 | 0.00 | 65 | 1014.1 |
| 20260510154624 | 23 | 183 | 0.0 | 3.2 | 0.00 | 0.00 | 0.00 | 64 | 1014.3 |
| 20260510154119 | 23 | 189 | 4.8 | 9.7 | 0.00 | 0.00 | 0.00 | 65 | 1014.2 |
| 20260510153615 | 22 | 333 | 0.0 | 3.2 | 0.00 | 0.00 | 0.00 | 68 | 1014.3 |
| 20260510153112 | 22 | 352 | 1.6 | 3.2 | 0.00 | 0.00 | 0.00 | 67 | 1014.4 |
| 20260510152608 | 22 | 15 | 0.0 | 1.6 | 0.00 | 0.00 | 0.00 | 70 | 1014.2 |
| 20260510152105 | 22 | 43 | 1.6 | 1.6 | 0.00 | 0.00 | 0.00 | 71 | 1014.4 |
| 20260510151602 | 22 | 165 | 3.2 | 4.8 | 0.00 | 0.00 | 0.00 | 71 | 1014.5 |
| 20260510151100 | 22 | 234 | 0.0 | 4.8 | 0.00 | 0.00 | 0.00 | 71 | 1014.6 |
| 20260510150600 | 22 | 265 | 3.2 | 3.2 | 0.00 | 0.00 | 0.00 | 72 | 1014.4 |
| 20260510150055 | 22 | 200 | 0.0 | 3.2 | 0.00 | 0.00 | 0.00 | 73 | 1014.5 |
| 20260510145553 | 21 | 248 | 0.0 | 3.2 | 0.00 | 0.00 | 0.00 | 75 | 1014.5 |
| 20260510145049 | 20 | 157 | 1.6 | 4.8 | 0.00 | 0.00 | 0.00 | 79 | 1014.5 |
| 20260510144546 | 20 | 119 | 1.6 | 1.6 | 0.00 | 0.00 | 0.00 | 81 | 1014.5 |
| 20260510144042 | 18 | 43 | 0.0 | 4.8 | 0.00 | 0.00 | 0.00 | 86 | 1014.4 |
| 20260510143537 | 19 | 35 | 1.6 | 4.8 | 0.00 | 0.00 | 0.00 | 84 | 1014.6 |
| 20260510143034 | 19 | 155 | 0.0 | 1.6 | 0.00 | 0.00 | 0.00 | 84 | 1014.7 |
| 20260510142530 | 18 | 46 | 1.6 | 3.2 | 0.00 | 0.00 | 0.00 | 86 | 1014.5 |
| 20260510142027 | 17 | 212 | 0.0 | 1.6 | 0.00 | 0.00 | 0.00 | 87 | 1014.8 |
| 20260510141524 | 17 | 69 | 3.2 | 3.2 | 0.00 | 0.00 | 0.00 | 88 | 1014.6 |
| 20260510141021 | 17 | 54 | 1.6 | 1.6 | 0.00 | 0.00 | 0.00 | 90 | 1014.5 |
| 20260510140518 | 17 | 321 | 0.0 | 1.6 | 0.00 | 0.00 | 0.00 | 91 | 1014.5 |
| 20260510140017 | 17 | 338 | 1.6 | 3.2 | 0.00 | 0.00 | 0.00 | 90 | 1014.6 |
| 20260510135513 | 17 | 220 | 1.6 | 1.6 | 0.00 | 0.00 | 0.00 | 90 | 1014.5 |
| 20260510135010 | 16 | 211 | 0.0 | 0.0 | 0.00 | 0.00 | 0.00 | 92 | 1014.7 |
| 20260510134507 | 16 | 211 | 0.0 | 1.6 | 0.00 | 0.00 | 0.00 | 94 | 1014.5 |
| 20260510134003 | 16 | 164 | 1.6 | 3.2 | 0.00 | 0.00 | 0.00 | 94 | 1014.5 |
| 20260510133459 | 15 | 174 | 0.0 | 3.2 | 0.00 | 0.00 | 0.00 | 96 | 1014.6 |
| 20260510132955 | 15 | 57 | 1.6 | 3.2 | 0.00 | 0.00 | 0.00 | 98 | 1014.4 |
| 20260510132453 | 14 | 143 | 1.6 | 3.2 | 0.00 | 0.00 | 0.00 | 99 | 1014.5 |
| 20260510131949 | 13 | 27 | 0.0 | 3.2 | 0.00 | 0.00 | 0.00 | 99 | 1014.8 |
| 20260510131447 | 13 | 4 | 1.6 | 3.2 | 0.00 | 0.00 | 0.00 | 99 | 1014.8 |
| 20260510130944 | 13 | 358 | 0.0 | 0.0 | 0.00 | 0.00 | 0.00 | 99 | 1014.8 |
| 20260510130440 | 13 | 326 | 0.0 | 1.6 | 0.00 | 0.00 | 0.00 | 99 | 1014.6 |
| 20260510125938 | 12 | 40 | 0.0 | 3.2 | 0.00 | 0.00 | 0.00 | 99 | 1014.6 |
| 20260510125434 | 12 | 134 | 0.0 | 0.0 | 0.00 | 0.00 | 0.00 | 99 | 1014.7 |
| 20260510124931 | 12 | 137 | 0.0 | 0.0 | 0.00 | 0.00 | 0.00 | 99 | 1014.5 |
| 20260510124427 | 12 | 114 | 0.0 | 0.0 | 0.00 | 0.00 | 0.00 | 99 | 1014.5 |
| 20260510123924 | 12 | 115 | 0.0 | 1.6 | 0.00 | 0.00 | 0.00 | 99 | 1014.3 |
| 20260510123419 | 12 | 117 | 0.0 | 0.0 | 0.00 | 0.00 | 0.00 | 99 | 1014.3 |
| 20260510122916 | 11 | 51 | 0.0 | 3.2 | 0.00 | 0.00 | 0.00 | 99 | 1014.2 |
| 20260510122410 | 11 | 78 | 3.2 | 3.2 | 0.00 | 0.00 | 0.00 | 99 | 1014.3 |
| 20260510121907 | 11 | 30 | 0.0 | 1.6 | 0.00 | 0.00 | 0.00 | 99 | 1014.3 |
| 20260510121405 | 11 | 307 | 0.0 | 3.2 | 0.00 | 0.00 | 0.00 | 99 | 1014.3 |
| 20260510120902 | 11 | 344 | 0.0 | 0.0 | 0.00 | 0.00 | 0.00 | 99 | 1014.4 |
| 20260510120359 | 11 | 351 | 0.0 | 0.0 | 0.00 | 0.00 | 0.00 | 99 | 1014.2 |
| 20260510115855 | 11 | 4 | 0.0 | 3.2 | 0.00 | 0.00 | 0.00 | 99 | 1014.1 |
| 20260510115352 | 11 | 103 | 1.6 | 3.2 | 0.00 | 0.00 | 0.00 | 99 | 1014.0 |
| 20260510114847 | 11 | 337 | 0.0 | 0.0 | 0.00 | 0.00 | 0.00 | 99 | 1014.0 |
| 20260510114345 | 11 | 340 | 0.0 | 1.6 | 0.00 | 0.00 | 0.00 | 99 | 1014.0 |
| 20260510113845 | 11 | 330 | 0.0 | 1.6 | 0.00 | 0.00 | 0.00 | 99 | 1013.9 |
| 20260510113341 | 11 | 10 | 0.0 | 0.0 | 0.00 | 0.00 | 0.00 | 99 | 1014.0 |
| 20260510112838 | 11 | 75 | 0.0 | 0.0 | 0.00 | 0.00 | 0.00 | 99 | 1013.9 |
| 20260510112335 | 11 | 16 | 0.0 | 0.0 | 0.00 | 0.00 | 0.00 | 99 | 1013.8 |
| 20260510111831 | 11 | 13 | 1.6 | 1.6 | 0.00 | 0.00 | 0.00 | 99 | 1013.7 |
| 20260510111328 | 11 | 340 | 0.0 | 1.6 | 0.00 | 0.00 | 0.00 | 99 | 1013.8 |
| 20260510110822 | 11 | 92 | 0.0 | 1.6 | 0.00 | 0.00 | 0.00 | 99 | 1013.4 |
| 20260510110320 | 11 | 57 | 0.0 | 0.0 | 0.00 | 0.00 | 0.00 | 99 | 1013.4 |
| 20260510105816 | 11 | 36 | 0.0 | 0.0 | 0.00 | 0.00 | 0.00 | 99 | 1013.4 |
| 20260510105316 | 11 | 67 | 0.0 | 0.0 | 0.00 | 0.00 | 0.00 | 99 | 1013.2 |
| 20260510104812 | 10 | 55 | 0.0 | 1.6 | 0.00 | 0.00 | 0.00 | 99 | 1013.4 |
| 20260510104310 | 10 | 113 | 0.0 | 0.0 | 0.00 | 0.00 | 0.00 | 99 | 1013.1 |
| 20260510103806 | 10 | 113 | 0.0 | 1.6 | 0.00 | 0.00 | 0.00 | 99 | 1013.3 |
| 20260510103303 | 10 | 113 | 0.0 | 0.0 | 0.00 | 0.00 | 0.00 | 99 | 1013.0 |
| 20260510102803 | 10 | 61 | 0.0 | 0.0 | 0.00 | 0.00 | 0.00 | 99 | 1013.3 |
| 20260510102259 | 10 | 18 | 0.0 | 0.0 | 0.00 | 0.00 | 0.00 | 99 | 1013.2 |
| 20260510101756 | 10 | 5 | 0.0 | 0.0 | 0.00 | 0.00 | 0.00 | 99 | 1013.1 |
| 20260510101255 | 10 | 12 | 0.0 | 0.0 | 0.00 | 0.00 | 0.00 | 99 | 1013.1 |
| 20260510100751 | 10 | 27 | 0.0 | 1.6 | 0.00 | 0.00 | 0.00 | 99 | 1013.2 |
| 20260510100250 | 10 | 327 | 0.0 | 0.0 | 0.00 | 0.00 | 0.00 | 99 | 1013.4 |
| 20260510095750 | 10 | 325 | 0.0 | 1.6 | 0.00 | 0.00 | 0.00 | 99 | 1013.4 |
| 20260510095245 | 10 | 325 | 0.0 | 0.0 | 0.00 | 0.00 | 0.00 | 99 | 1013.1 |
| 20260510094744 | 10 | 330 | 1.6 | 1.6 | 0.00 | 0.00 | 0.00 | 99 | 1012.8 |
| 20260510094240 | 10 | 342 | 1.6 | 3.2 | 0.00 | 0.00 | 0.00 | 99 | 1012.9 |
| 20260510093736 | 10 | 325 | 0.0 | 4.8 | 0.00 | 0.00 | 0.00 | 99 | 1012.8 |
| 20260510093233 | 10 | 341 | 0.0 | 1.6 | 0.00 | 0.00 | 0.00 | 99 | 1012.9 |
| 20260510092729 | 10 | 308 | 1.6 | 1.6 | 0.00 | 0.00 | 0.00 | 99 | 1012.7 |
| 20260510092225 | 10 | 342 | 1.6 | 3.2 | 0.00 | 0.00 | 0.00 | 99 | 1013.0 |
| 20260510091721 | 10 | 334 | 0.0 | 4.8 | 0.00 | 0.00 | 0.00 | 99 | 1012.7 |
| 20260510091218 | 10 | 338 | 0.0 | 3.2 | 0.00 | 0.00 | 0.00 | 99 | 1012.8 |
| 20260510090714 | 10 | 327 | 0.0 | 3.2 | 0.00 | 0.00 | 0.00 | 99 | 1012.5 |
| 20260510090211 | 10 | 355 | 0.0 | 0.0 | 0.00 | 0.00 | 0.00 | 99 | 1012.4 |
| 20260510085706 | 10 | 359 | 0.0 | 0.0 | 0.00 | 0.00 | 0.00 | 99 | 1012.2 |
| 20260510085202 | 10 | 25 | 0.0 | 0.0 | 0.00 | 0.00 | 0.00 | 99 | 1012.2 |
| 20260510084658 | 10 | 25 | 0.0 | 0.0 | 0.00 | 0.00 | 0.00 | 99 | 1012.2 |
| 20260510084155 | 10 | 25 | 0.0 | 0.0 | 0.00 | 0.00 | 0.00 | 99 | 1012.3 |
| 20260510083651 | 10 | 25 | 0.0 | 0.0 | 0.00 | 0.00 | 0.00 | 99 | 1012.2 |
| 20260510083149 | 10 | 29 | 0.0 | 0.0 | 0.00 | 0.00 | 0.00 | 99 | 1012.1 |
| 20260510082644 | 10 | 29 | 0.0 | 0.0 | 0.00 | 0.00 | 0.00 | 99 | 1012.2 |
| 20260510082140 | 10 | 29 | 0.0 | 0.0 | 0.00 | 0.00 | 0.00 | 99 | 1012.2 |
| 20260510081635 | 10 | 44 | 0.0 | 0.0 | 0.00 | 0.00 | 0.00 | 99 | 1012.2 |
| 20260510081131 | 10 | 42 | 0.0 | 0.0 | 0.00 | 0.00 | 0.00 | 99 | 1012.4 |
| 20260510080631 | 10 | 12 | 0.0 | 0.0 | 0.00 | 0.00 | 0.00 | 99 | 1012.3 |
| 20260510080127 | 10 | 34 | 0.0 | 0.0 | 0.00 | 0.00 | 0.00 | 99 | 1012.2 |
| 20260510075625 | 10 | 326 | 0.0 | 0.0 | 0.00 | 0.00 | 0.00 | 99 | 1012.3 |
| 20260510075122 | 10 | 323 | 0.0 | 0.0 | 0.00 | 0.00 | 0.00 | 99 | 1012.0 |
| 20260510074619 | 10 | 332 | 0.0 | 0.0 | 0.00 | 0.00 | 0.00 | 99 | 1012.0 |
| 20260510074115 | 10 | 328 | 0.0 | 0.0 | 0.00 | 0.00 | 0.00 | 99 | 1011.9 |
| 20260510073611 | 9 | 92 | 0.0 | 0.0 | 0.00 | 0.00 | 0.00 | 99 | 1011.9 |
| 20260510073108 | 9 | 92 | 0.0 | 0.0 | 0.00 | 0.00 | 0.00 | 99 | 1011.8 |
| 20260510072605 | 9 | 92 | 0.0 | 0.0 | 0.00 | 0.00 | 0.00 | 99 | 1011.6 |
| 20260510072101 | 8 | 92 | 0.0 | 0.0 | 0.00 | 0.00 | 0.00 | 99 | 1011.6 |
| 20260510071557 | 8 | 92 | 0.0 | 0.0 | 0.00 | 0.00 | 0.00 | 99 | 1011.4 |
| 20260510071055 | 8 | 92 | 0.0 | 0.0 | 0.00 | 0.00 | 0.00 | 99 | 1011.5 |
| 20260510070551 | 8 | 92 | 0.0 | 0.0 | 0.00 | 0.00 | 0.00 | 99 | 1011.6 |
| 20260510070049 | 8 | 92 | 0.0 | 0.0 | 0.00 | 0.00 | 0.00 | 99 | 1011.5 |
| 20260510065545 | 8 | 92 | 0.0 | 0.0 | 0.00 | 0.00 | 0.00 | 99 | 1011.5 |
| 20260510065041 | 8 | 92 | 0.0 | 0.0 | 0.00 | 0.00 | 0.00 | 99 | 1011.6 |
| 20260510064537 | 9 | 92 | 0.0 | 0.0 | 0.00 | 0.00 | 0.00 | 99 | 1011.6 |
| 20260510064034 | 9 | 92 | 0.0 | 0.0 | 0.00 | 0.00 | 0.00 | 99 | 1011.5 |
| 20260510063531 | 9 | 92 | 0.0 | 0.0 | 0.00 | 0.00 | 0.00 | 99 | 1011.7 |
| 20260510063028 | 9 | 92 | 0.0 | 0.0 | 0.00 | 0.00 | 0.00 | 99 | 1011.6 |
| 20260510062524 | 9 | 92 | 0.0 | 0.0 | 0.00 | 0.00 | 0.00 | 99 | 1011.6 |
| 20260510062019 | 9 | 92 | 0.0 | 0.0 | 0.00 | 0.00 | 0.00 | 99 | 1011.8 |
| 20260510061516 | 9 | 92 | 0.0 | 0.0 | 0.00 | 0.00 | 0.00 | 99 | 1011.6 |
| 20260510061013 | 9 | 92 | 0.0 | 0.0 | 0.00 | 0.00 | 0.00 | 99 | 1011.9 |
| 20260510060509 | 9 | 92 | 0.0 | 0.0 | 0.00 | 0.00 | 0.00 | 99 | 1011.8 |
| 20260510060006 | 9 | 92 | 0.0 | 0.0 | 0.00 | 0.00 | 0.00 | 99 | 1011.9 |
| 20260510055501 | 9 | 92 | 0.0 | 0.0 | 0.00 | 0.00 | 0.00 | 99 | 1011.8 |
| 20260510055000 | 10 | 92 | 0.0 | 0.0 | 0.00 | 0.00 | 0.00 | 99 | 1011.8 |
| 20260510054455 | 10 | 93 | 0.0 | 0.0 | 0.00 | 0.00 | 0.00 | 99 | 1011.9 |
| 20260510053950 | 10 | 92 | 0.0 | 0.0 | 0.00 | 0.00 | 0.00 | 99 | 1012.0 |
| 20260510053445 | 10 | 92 | 0.0 | 0.0 | 0.00 | 0.00 | 0.00 | 99 | 1012.2 |
| 20260510052942 | 10 | 92 | 0.0 | 0.0 | 0.00 | 0.00 | 0.00 | 99 | 1012.0 |
| 20260510052438 | 10 | 92 | 0.0 | 0.0 | 0.00 | 0.00 | 0.00 | 99 | 1011.9 |
| 20260510051934 | 10 | 92 | 0.0 | 0.0 | 0.00 | 0.00 | 0.00 | 99 | 1012.2 |
| 20260510051431 | 10 | 92 | 0.0 | 0.0 | 0.00 | 0.00 | 0.00 | 99 | 1012.2 |
| 20260510050927 | 10 | 92 | 0.0 | 0.0 | 0.00 | 0.00 | 0.00 | 99 | 1012.2 |
| 20260510050424 | 10 | 93 | 0.0 | 0.0 | 0.00 | 0.00 | 0.00 | 99 | 1012.3 |
| 20260510045921 | 10 | 93 | 0.0 | 0.0 | 0.00 | 0.00 | 0.00 | 99 | 1012.2 |
| 20260510045419 | 10 | 93 | 0.0 | 0.0 | 0.00 | 0.00 | 0.00 | 99 | 1012.2 |
| 20260510044915 | 10 | 93 | 0.0 | 0.0 | 0.00 | 0.00 | 0.00 | 99 | 1012.2 |
| 20260510044412 | 10 | 93 | 0.0 | 0.0 | 0.00 | 0.00 | 0.00 | 99 | 1012.3 |
| 20260510043909 | 10 | 93 | 0.0 | 0.0 | 0.00 | 0.00 | 0.00 | 99 | 1012.3 |
| 20260510043404 | 10 | 93 | 0.0 | 0.0 | 0.00 | 0.00 | 0.00 | 99 | 1012.3 |
| 20260510042903 | 10 | 93 | 0.0 | 0.0 | 0.00 | 0.00 | 0.00 | 99 | 1012.3 |
| 20260510042359 | 10 | 93 | 0.0 | 0.0 | 0.00 | 0.00 | 0.00 | 99 | 1012.3 |
| 20260510041854 | 10 | 93 | 0.0 | 0.0 | 0.00 | 0.00 | 0.00 | 99 | 1012.3 |
| 20260510041352 | 10 | 93 | 0.0 | 0.0 | 0.00 | 0.00 | 0.00 | 99 | 1012.5 |
| 20260510040849 | 10 | 93 | 0.0 | 0.0 | 0.00 | 0.00 | 0.00 | 99 | 1012.5 |
| 20260510040346 | 10 | 93 | 0.0 | 0.0 | 0.00 | 0.00 | 0.00 | 99 | 1012.4 |
| 20260510035841 | 10 | 93 | 0.0 | 0.0 | 0.00 | 0.13 | 0.13 | 99 | 1012.5 |
| 20260510035337 | 11 | 93 | 0.0 | 0.0 | 0.00 | 0.13 | 0.13 | 99 | 1012.5 |
| 20260510034833 | 11 | 93 | 0.0 | 0.0 | 0.00 | 0.13 | 0.13 | 99 | 1012.3 |
| 20260510034331 | 11 | 93 | 0.0 | 0.0 | 0.00 | 0.13 | 0.13 | 99 | 1012.3 |
| 20260510033828 | 11 | 93 | 0.0 | 0.0 | 0.00 | 0.13 | 0.13 | 99 | 1012.3 |
| 20260510033324 | 11 | 93 | 0.0 | 0.0 | 0.00 | 0.13 | 0.13 | 99 | 1012.1 |
| 20260510032821 | 11 | 93 | 0.0 | 0.0 | 0.00 | 0.13 | 0.13 | 99 | 1012.0 |
| 20260510032318 | 11 | 93 | 0.0 | 0.0 | 0.00 | 0.13 | 0.13 | 99 | 1012.2 |
| 20260510031813 | 11 | 93 | 0.0 | 0.0 | 0.00 | 0.13 | 0.13 | 99 | 1012.1 |
| 20260510031309 | 11 | 93 | 0.0 | 0.0 | 0.00 | 0.13 | 0.13 | 99 | 1011.9 |
| 20260510030804 | 11 | 93 | 0.0 | 0.0 | 0.00 | 0.13 | 0.13 | 99 | 1011.8 |
| 20260510030300 | 11 | 93 | 0.0 | 0.0 | 0.00 | 0.13 | 0.13 | 99 | 1011.7 |
| 20260510025758 | 11 | 93 | 0.0 | 0.0 | 0.00 | 0.13 | 0.13 | 99 | 1011.7 |
| 20260510025255 | 11 | 93 | 0.0 | 0.0 | 0.00 | 0.13 | 0.13 | 99 | 1011.8 |
| 20260510024751 | 11 | 93 | 0.0 | 0.0 | 0.00 | 0.13 | 0.13 | 99 | 1011.8 |
| 20260510024248 | 11 | 93 | 0.0 | 0.0 | 0.00 | 0.13 | 0.13 | 99 | 1011.9 |
| 20260510023744 | 11 | 93 | 0.0 | 0.0 | 0.00 | 0.13 | 0.13 | 99 | 1012.1 |
| 20260510023241 | 11 | 90 | 0.0 | 0.0 | 0.00 | 0.13 | 0.13 | 99 | 1011.9 |
| 20260510022737 | 11 | 90 | 0.0 | 0.0 | 0.00 | 0.13 | 0.13 | 99 | 1011.9 |
| 20260510022238 | 11 | 90 | 0.0 | 0.0 | 0.00 | 0.13 | 0.13 | 99 | 1011.7 |
| 20260510021732 | 11 | 90 | 0.0 | 0.0 | 0.00 | 0.13 | 0.13 | 99 | 1011.8 |
| 20260510021231 | 11 | 90 | 0.0 | 0.0 | 0.00 | 0.13 | 0.13 | 99 | 1011.9 |
| 20260510020730 | 12 | 90 | 0.0 | 0.0 | 0.00 | 0.13 | 0.13 | 99 | 1011.8 |
| 20260510020225 | 12 | 90 | 0.0 | 0.0 | 0.00 | 0.13 | 0.13 | 99 | 1011.8 |
| 20260510015721 | 11 | 90 | 0.0 | 0.0 | 0.00 | 0.13 | 0.13 | 99 | 1011.7 |
| 20260510015218 | 11 | 90 | 0.0 | 0.0 | 0.00 | 0.13 | 0.13 | 99 | 1011.8 |
| 20260510014713 | 11 | 90 | 0.0 | 0.0 | 0.00 | 0.13 | 0.13 | 99 | 1011.6 |
| 20260510014211 | 12 | 90 | 0.0 | 0.0 | 0.00 | 0.13 | 0.13 | 99 | 1011.7 |
| 20260510013706 | 12 | 90 | 0.0 | 0.0 | 0.00 | 0.13 | 0.13 | 99 | 1011.8 |
| 20260510013202 | 12 | 90 | 0.0 | 0.0 | 0.00 | 0.13 | 0.13 | 99 | 1011.7 |
| 20260510012701 | 12 | 90 | 0.0 | 0.0 | 0.00 | 0.13 | 0.13 | 99 | 1011.8 |
| 20260510012157 | 12 | 90 | 0.0 | 0.0 | 0.00 | 0.13 | 0.13 | 99 | 1011.7 |
| 20260510011652 | 12 | 90 | 0.0 | 0.0 | 0.00 | 0.13 | 0.13 | 99 | 1011.6 |
| 20260510011148 | 12 | 85 | 0.0 | 0.0 | 0.00 | 0.13 | 0.13 | 99 | 1011.4 |
| 20260510010644 | 12 | 85 | 0.0 | 0.0 | 0.00 | 0.13 | 0.13 | 99 | 1011.6 |
| 20260510010142 | 12 | 85 | 0.0 | 0.0 | 0.00 | 0.13 | 0.13 | 99 | 1011.4 |
| 20260510005637 | 12 | 85 | 0.0 | 0.0 | 0.00 | 0.13 | 0.13 | 99 | 1011.5 |
| 20260510005129 | 12 | 86 | 0.0 | 0.0 | 0.00 | 0.13 | 0.13 | 99 | 1011.5 |
| 20260510004627 | 12 | 85 | 0.0 | 0.0 | 0.00 | 0.13 | 0.13 | 99 | 1011.5 |
| 20260510004125 | 12 | 85 | 0.0 | 0.0 | 0.00 | 0.13 | 0.13 | 99 | 1011.5 |
| 20260510003622 | 12 | 86 | 0.0 | 0.0 | 0.00 | 0.13 | 0.13 | 99 | 1011.6 |
| 20260510003118 | 12 | 86 | 0.0 | 0.0 | 0.00 | 0.13 | 0.13 | 99 | 1011.5 |
| 20260510002618 | 12 | 86 | 0.0 | 0.0 | 0.00 | 0.13 | 0.13 | 99 | 1011.4 |
| 20260510002115 | 12 | 86 | 0.0 | 0.0 | 0.00 | 0.13 | 0.13 | 99 | 1011.5 |
| 20260510001612 | 13 | 86 | 0.0 | 0.0 | 0.00 | 0.13 | 0.13 | 99 | 1011.4 |
| 20260510001111 | 13 | 86 | 0.0 | 0.0 | 0.00 | 0.13 | 0.13 | 99 | 1011.4 |
| 20260510000611 | 13 | 86 | 0.0 | 0.0 | 0.00 | 0.13 | 0.13 | 99 | 1011.3 |
| 20260510000108 | 13 | 86 | 0.0 | 0.0 | 0.00 | 0.13 | 0.13 | 99 | 1011.4 |
| 20260509235604 | 13 | 86 | 0.0 | 0.0 | 0.00 | 0.13 | 0.13 | 99 | 1011.6 |
| 20260509235101 | 13 | 85 | 0.0 | 0.0 | 0.00 | 0.13 | 0.13 | 99 | 1011.4 |
| 20260509234557 | 13 | 85 | 0.0 | 0.0 | 0.00 | 0.13 | 0.13 | 99 | 1011.5 |
| 20260509234055 | 13 | 86 | 0.0 | 0.0 | 0.00 | 0.13 | 0.13 | 99 | 1011.3 |
| 20260509233552 | 14 | 57 | 0.0 | 0.0 | 0.00 | 0.13 | 0.13 | 99 | 1011.2 |
| 20260509233050 | 14 | 55 | 0.0 | 0.0 | 0.00 | 0.13 | 0.13 | 99 | 1011.1 |
| 20260509232546 | 14 | 63 | 0.0 | 1.6 | 0.00 | 0.13 | 0.13 | 99 | 1011.1 |
| 20260509232043 | 14 | 96 | 0.0 | 0.0 | 0.00 | 0.13 | 0.13 | 99 | 1011.1 |
| 20260509231539 | 14 | 96 | 0.0 | 1.6 | 0.00 | 0.13 | 0.13 | 99 | 1011.0 |
| 20260509231037 | 14 | 95 | 0.0 | 1.6 | 0.00 | 0.13 | 0.13 | 99 | 1010.9 |
| 20260509230534 | 14 | 136 | 0.0 | 1.6 | 0.00 | 0.13 | 0.13 | 99 | 1010.9 |
| 20260509230031 | 14 | 111 | 0.0 | 1.6 | 0.00 | 0.13 | 0.13 | 99 | 1010.9 |
| 20260509225526 | 14 | 98 | 0.0 | 1.6 | 0.00 | 0.13 | 0.13 | 99 | 1011.2 |
| 20260509225022 | 14 | 43 | 0.0 | 1.6 | 0.00 | 0.13 | 0.13 | 99 | 1011.2 |
| 20260509224518 | 14 | 100 | 0.0 | 4.8 | 0.00 | 0.13 | 0.13 | 99 | 1011.1 |
| 20260509224014 | 14 | 82 | 0.0 | 1.6 | 0.00 | 0.13 | 0.13 | 99 | 1011.3 |
| 20260509223511 | 14 | 24 | 0.0 | 0.0 | 0.00 | 0.13 | 0.13 | 99 | 1011.2 |
| 20260509223010 | 14 | 315 | 0.0 | 0.0 | 0.00 | 0.13 | 0.13 | 99 | 1011.2 |
| 20260509222505 | 14 | 36 | 1.6 | 1.6 | 0.00 | 0.13 | 0.13 | 99 | 1011.3 |
| 20260509222001 | 14 | 116 | 0.0 | 3.2 | 0.00 | 0.13 | 0.13 | 99 | 1011.2 |
| 20260509221457 | 14 | 106 | 0.0 | 0.0 | 0.00 | 0.13 | 0.13 | 99 | 1011.2 |
| 20260509220953 | 14 | 100 | 0.0 | 0.0 | 0.00 | 0.13 | 0.13 | 99 | 1011.2 |